SCP
0 0 0 0 0 0 0 0 0 0 0 0 0 0 0 0 0 0 0 0 0 0 0 0 0 0 0 0 0 0 0 0 0 0 0 0 0 0
0 0 0 0 0 0 0 0 0 0 0 0 0 0 0 0 0 0 0 0 0 0 0 0 0 0 0 0 0 0 0 0 0 0 0 0 0 0
0 0 0 0 0 0 0 0 0 0 0 0 0 0 0 0 0 0 0 0 0 0 0 0 0 0 0 0 0 0 0 0 0 0 0 0 0 0
0 0 0 0 0 0 0 0 0 0 0 0 0 0 0 0 0 0 0 0 0 0 0 0 0 0 0 0 0 0 0 0 0 0 0 0 0 0
0 0 0 0 0 0 0 0 0 0 0 0 0 0 0 0 0 0 0 0 0 0 0 0 0 0 0 0 0 0 0 0 0 0 0 0 0 0
0 0 0 0 0 0 0 0 0 0 0 0 0 0 0 0 0 0 0 0 0 0 0 0 0 0 0 0 0 0 0 0 0 0 0 0 0 0
0 0 0 0 0 0 0 0 0 0 0 0 0 0 0 0 0 0 0 0 0 0 0 0 0 0 0 0 0 0 0 0 0 0 0 0 0 0
0 0 0 0 0 0 0 0 0 0 0 0 0 0 0 0 0 0 0 0 0 0 0 0 0 0 0 0 0 0 0 0 0 0 0 0 0 0
0 0 0 0 0 0 0 0 0 0 0 0 0 0 0 0 0 0 0 0 0 0 0 0 0 0 0 0 0 0 0 0 0 0 0 0 0 0
0 0 0 0 0 0 0 0 0 0 0 0 0 0 0 0 0 0 0 0 0 0 0 0 0 0 0 0 0 0 0 0 0 0 0 0 0 0
0 0 0 0 0 0 0 0 0 0 0 0 0 0 0 0 0 0 0 0 0 0 0 0 0 0 0 0 0 0 0 0 0 0 0 0 0 0
0 0 0 0 0 0 0 0 0 0 0 0 0 0 0 0 0 0 0 0 0 0 -0 -0 -0 0 0 0 0 0 0 0 0 0 0 0 0 0
0 0 0 0 0 0 0 0 0 0 0 0 0 0 0 0 0 0 0 0 0 0 -0 -0 -0 0 0 0 0 0 0 0 0 0 0 0 0 0
0 0 0 0 0 0 0 0 0 0 0 0 0 0 0 0 0 0 0 0 0 0 0 0 0 0 0 0 0 0 0 0 0 0 0 0 0 0
0 0 0 0 0 0 0 0 0 0 0 0 0 0 0 -0 0 -0 -0 0 0 0 0 0 0 0 0 0 0 0 0 0 0 0 0 0 0 0
0 0 0 0 0 0 0 0 0 0 0 0 0 0 0 0 0 -0 0 0 0 0 0 0 0 0 0 0 0 0 0 0 0 0 0 0 0 0
0 0 0 0 0 0 0 0 0 0 0 0 0 0 0 0 0 0 0 0 0 0 0 0 0 0 0 0 0 0 0 0 0 0 0 0 0 0
0 0 0 0 0 0 0 0 0 0 0 0 0 0 0 0 0 0 0 0 0 0 0 0 0 0 0 0 0 0 0 0 0 0 0 0 0 0
0 0 0 0 0 0 0 0 0 0 0 0 0 0 0 0 0 0 0 0 0 0 0 0 0 0 0 0 0 0 0 0 0 0 0 0 0 0
0 0 0 0 0 0 0 0 0 0 0 0 0 0 0 0 0 0 0 0 0 0 0 0 0 0 0 0 0 0 0 0 0 0 0 0 0 0
0 0 0 0 0 0 0 0 0 0 0 0 0 0 0 0 0 0 0 0 0 0 0 0 0 0 0 0 0 0 0 0 0 0 0 0 0 0
0 0 0 0 0 0 0 0 0 0 0 0 0 0 0 0 0 0 0 0 0 0 0 0 0 0 0 0 0 0 0 0 0 0 0 0 0 0
0 0 0 0 0 0 0 0 0 0 0 0 0 0 0 0 0 0 0 0 0 0 0 0 0 0 0 0 0 0 0 0 0 0 0 0 0 0
Wind_Speed_500mb
50 53 57 61 63 61 61 58 64 87 116 84 76 75 71 74 70 72 76 75 75 75 70 68 73 78 79 81 83 81 83 84 85 88 92 90 87 90
52 56 58 60 62 64 65 67 65 72 94 108 96 85 86 86 88 85 81 81 81 70 75 73 74 75 81 85 86 85 84 85 84 81 83 76 75 83
59 63 65 66 69 71 72 71 68 64 79 117 100 94 88 90 91 89 79 83 81 76 78 76 78 76 76 79 79 84 81 79 74 57 50 60 86 73
71 74 76 76 77 76 77 80 74 72 73 90 108 99 91 93 89 84 85 81 83 83 79 76 75 75 74 71 67 73 56 33 28 47 54 38 40 45
75 78 80 80 83 82 82 84 82 79 80 80 99 92 90 84 91 90 91 87 85 79 74 73 70 68 66 59 35 21 28 37 41 47 56 55 40 25
80 82 84 85 86 88 88 88 88 85 83 80 90 93 90 90 89 89 90 82 78 73 71 71 65 59 51 37 31 29 18 26 41 44 34 26 21 19
89 89 88 88 88 88 90 94 89 86 85 81 86 88 83 79 86 89 87 82 76 70 59 47 40 29 14 19 15 18 28 35 33 24 16 9 8 12
99 99 98 96 93 92 91 89 82 79 83 78 82 84 93 91 90 86 81 76 62 42 30 16 6 7 11 15 23 27 22 14 9 5 3 7 8 10
99 100 102 97 93 91 92 86 82 75 71 71 76 83 85 83 76 69 62 50 38 22 9 11 14 27 31 31 24 18 11 9 7 1 2 2 1 4
97 97 97 97 92 89 87 84 80 74 71 62 60 66 66 63 52 41 36 26 13 14 19 33 28 38 34 27 15 12 21 8 2 2 3 4 7 10
95 93 91 92 86 76 72 77 80 71 55 49 46 44 40 34 24 18 14 12 23 22 13 35 29 29 23 37 47 35 15 6 8 3 5 8 10 14
91 89 86 78 77 71 65 61 59 60 49 37 25 20 13 6 4 10 12 13 32 26 19 29 31 28 27 34 24 11 6 5 4 6 7 11 16 21
84 87 78 74 68 55 42 47 47 35 23 14 5 5 13 21 23 18 21 16 12 19 19 24 25 15 12 33 20 11 5 3 5 9 12 17 23 25
76 75 72 65 52 41 37 26 20 11 1 3 8 20 23 22 23 22 22 21 20 19 17 14 13 9 7 18 14 14 8 6 8 12 19 21 25 28
67 63 58 47 34 25 22 18 9 2 6 9 17 20 20 20 20 18 19 19 16 16 13 11 10 8 6 7 8 8 3 3 9 15 23 26 27 25
67 57 43 30 26 23 23 8 3 3 8 7 8 10 11 11 9 11 11 12 10 12 11 9 7 6 5 7 6 5 1 6 16 19 21 22 23 24
61 50 41 24 27 25 16 9 9 7 4 2 3 3 4 4 3 5 5 5 6 8 7 7 6 5 6 7 4 3 8 11 14 16 17 20 22 23
53 47 39 28 31 24 18 17 14 10 7 7 6 4 3 2 3 1 1 2 3 3 2 3 2 2 2 6 5 5 8 10 14 20 23 24 24 26
50 47 38 33 35 28 28 26 22 17 13 11 9 7 5 5 5 4 3 2 1 1 2 2 1 2 2 5 2 6 13 17 20 22 26 30 31 29
47 46 41 39 39 37 32 27 23 20 17 14 11 9 9 9 9 9 7 6 4 4 3 3 3 1 3 3 3 10 14 18 21 23 25 25 28 27
47 43 44 43 41 39 35 31 25 22 19 16 14 13 13 14 14 12 10 8 7 5 4 4 2 2 5 8 9 11 14 18 22 25 27 29 29 28
47 45 43 44 41 40 37 30 25 23 21 18 17 18 17 15 15 14 12 10 9 7 7 5 5 6 8 9 11 13 15 18 21 22 24 26 29 22
51 52 47 41 42 39 35 27 25 22 21 20 19 20 18 16 17 15 13 13 11 10 8 8 9 10 12 12 14 16 18 20 19 15 19 23 24 26
Wind_Direction_500mb
312 311 310 310 309 306 299 292 289 294 297 300 299 300 296 298 294 295 297 297 293 298 288 292 289 289 288 286 286 284 281 281 276 270 265 263 260 215
315 313 313 312 308 307 301 294 289 285 285 297 296 295 297 297 299 297 295 299 294 293 292 291 287 285 286 288 289 287 285 283 280 280 275 262 210 193
318 316 315 315 313 311 309 305 294 287 281 293 292 298 295 297 297 296 297 299 300 295 295 292 288 287 286 286 287 285 287 285 286 274 223 185 194 191
321 320 319 319 317 315 311 306 299 292 286 287 297 296 293 298 298 298 300 298 300 297 293 290 288 286 285 287 290 288 289 286 200 187 177 158 152 152
319 317 317 315 313 312 310 306 304 298 295 285 290 295 296 298 298 299 302 302 301 300 294 290 289 287 287 287 276 262 224 220 187 162 150 147 150 167
317 316 315 314 313 312 310 308 306 302 299 294 290 295 294 298 297 298 302 302 301 302 299 297 291 288 287 281 233 234 235 190 168 161 169 177 184 183
316 316 315 314 313 311 309 309 306 303 300 299 296 297 296 296 295 298 297 298 299 297 295 293 292 297 280 202 216 195 176 166 165 168 169 182 230 255
318 318 318 317 316 312 310 307 304 301 299 298 298 296 299 298 298 296 296 295 289 290 293 299 324 132 166 171 155 150 149 152 158 159 228 265 247 255
316 317 316 317 316 313 310 307 304 300 295 297 294 293 294 295 296 293 293 289 278 284 242 124 128 121 122 120 132 141 147 138 155 343 294 275 313 311
315 316 317 317 316 314 313 309 307 307 307 306 297 295 295 295 295 288 282 270 245 170 157 124 140 131 135 136 130 115 139 156 167 103 60 0 326 314
316 317 317 316 317 317 313 309 308 312 316 310 303 298 297 296 289 277 258 218 150 138 155 138 139 131 124 121 124 147 157 110 108 76 346 337 332 330
318 316 316 317 315 316 312 313 314 312 315 317 314 309 300 295 95 105 109 145 139 104 125 145 145 132 116 139 152 165 130 114 12 347 345 337 330 328
319 319 318 316 318 320 317 306 305 312 316 312 322 57 90 98 97 99 114 108 131 124 112 150 165 153 154 167 177 188 218 305 334 332 334 332 327 326
318 318 316 319 320 321 321 327 323 333 266 185 103 101 103 95 91 88 81 75 85 106 100 102 157 160 142 162 180 212 232 286 318 331 333 329 328 332
316 317 314 315 316 324 324 334 344 229 224 141 119 106 96 86 77 74 72 71 80 93 92 85 100 115 134 143 145 150 161 309 324 334 329 331 331 330
313 314 315 305 310 307 310 313 285 210 172 138 110 95 90 85 74 67 65 74 73 90 91 89 89 96 103 112 114 124 319 334 328 332 331 331 330 328
304 300 299 294 293 292 282 240 205 188 189 116 51 86 107 91 65 65 61 56 84 87 88 84 78 75 89 93 75 10 340 338 333 334 333 334 334 336
293 283 282 272 271 266 240 225 225 240 263 298 276 228 229 276 310 336 37 31 41 99 118 123 115 106 103 67 57 17 342 343 347 347 345 345 344 343
279 270 266 260 261 264 243 241 247 259 272 267 262 258 260 272 292 309 320 343 5 220 188 176 187 237 174 108 7 350 349 352 350 347 344 342 338 337
270 262 259 257 259 257 248 245 253 265 266 264 261 265 272 283 293 296 300 296 269 230 217 198 203 224 36 21 356 343 340 341 341 340 335 331 331 336
272 265 260 258 258 253 246 249 256 257 255 254 260 270 279 283 287 286 283 270 257 242 221 222 248 303 334 328 322 330 332 333 334 332 332 331 334 336
274 270 263 262 252 249 248 244 246 248 252 259 267 273 274 275 280 276 272 269 262 244 236 245 270 295 303 306 315 321 323 324 325 326 326 326 324 319
281 270 264 262 247 247 238 238 240 248 258 266 272 275 272 273 273 270 263 259 257 258 259 263 274 284 292 298 306 311 312 314 317 320 318 316 312 310
Wind_Speed_850mb
50 53 57 61 63 61 61 58 64 87 116 84 76 75 71 74 70 72 76 75 75 75 70 68 73 78 79 81 83 81 83 84 85 88 92 90 87 90
52 56 58 60 62 64 65 67 65 72 94 108 96 85 86 86 88 85 81 81 81 70 75 73 74 75 81 85 86 85 84 85 84 81 83 76 75 83
59 63 65 66 69 71 72 71 68 64 79 117 100 94 88 90 91 89 79 83 81 76 78 76 78 76 76 79 79 84 81 79 74 57 50 60 86 73
71 74 76 76 77 76 77 80 74 72 73 90 108 99 91 93 89 84 85 81 83 83 79 76 75 75 74 71 67 73 56 33 28 47 54 38 40 45
75 78 80 80 83 82 82 84 82 79 80 80 99 92 90 84 91 90 91 87 85 79 74 73 70 68 66 59 35 21 28 37 41 47 56 55 40 25
80 82 84 85 86 88 88 88 88 85 83 80 90 93 90 90 89 89 90 82 78 73 71 71 65 59 51 37 31 29 18 26 41 44 34 26 21 19
89 89 88 88 88 88 90 94 89 86 85 81 86 88 83 79 86 89 87 82 76 70 59 47 40 29 14 19 15 18 28 35 33 24 16 9 8 12
99 99 98 96 93 92 91 89 82 79 83 78 82 84 93 91 90 86 81 76 62 42 30 16 6 7 11 15 23 27 22 14 9 5 3 7 8 10
99 100 102 97 93 91 92 86 82 75 71 71 76 83 85 83 76 69 62 50 38 22 9 11 14 27 31 31 24 18 11 9 7 1 2 2 1 4
97 97 97 97 92 89 87 84 80 74 71 62 60 66 66 63 52 41 36 26 13 14 19 33 28 38 34 27 15 12 21 8 2 2 3 4 7 10
95 93 91 92 86 76 72 77 80 71 55 49 46 44 40 34 24 18 14 12 23 22 13 35 29 29 23 37 47 35 15 6 8 3 5 8 10 14
91 89 86 78 77 71 65 61 59 60 49 37 25 20 13 6 4 10 12 13 32 26 19 29 31 28 27 34 24 11 6 5 4 6 7 11 16 21
84 87 78 74 68 55 42 47 47 35 23 14 5 5 13 21 23 18 21 16 12 19 19 24 25 15 12 33 20 11 5 3 5 9 12 17 23 25
76 75 72 65 52 41 37 26 20 11 1 3 8 20 23 22 23 22 22 21 20 19 17 14 13 9 7 18 14 14 8 6 8 12 19 21 25 28
67 63 58 47 34 25 22 18 9 2 6 9 17 20 20 20 20 18 19 19 16 16 13 11 10 8 6 7 8 8 3 3 9 15 23 26 27 25
67 57 43 30 26 23 23 8 3 3 8 7 8 10 11 11 9 11 11 12 10 12 11 9 7 6 5 7 6 5 1 6 16 19 21 22 23 24
61 50 41 24 27 25 16 9 9 7 4 2 3 3 4 4 3 5 5 5 6 8 7 7 6 5 6 7 4 3 8 11 14 16 17 20 22 23
53 47 39 28 31 24 18 17 14 10 7 7 6 4 3 2 3 1 1 2 3 3 2 3 2 2 2 6 5 5 8 10 14 20 23 24 24 26
50 47 38 33 35 28 28 26 22 17 13 11 9 7 5 5 5 4 3 2 1 1 2 2 1 2 2 5 2 6 13 17 20 22 26 30 31 29
47 46 41 39 39 37 32 27 23 20 17 14 11 9 9 9 9 9 7 6 4 4 3 3 3 1 3 3 3 10 14 18 21 23 25 25 28 27
47 43 44 43 41 39 35 31 25 22 19 16 14 13 13 14 14 12 10 8 7 5 4 4 2 2 5 8 9 11 14 18 22 25 27 29 29 28
47 45 43 44 41 40 37 30 25 23 21 18 17 18 17 15 15 14 12 10 9 7 7 5 5 6 8 9 11 13 15 18 21 22 24 26 29 22
51 52 47 41 42 39 35 27 25 22 21 20 19 20 18 16 17 15 13 13 11 10 8 8 9 10 12 12 14 16 18 20 19 15 19 23 24 26
Wind_Direction_850mb
312 311 310 310 309 306 299 292 289 294 297 300 299 300 296 298 294 295 297 297 293 298 288 292 289 289 288 286 286 284 281 281 276 270 265 263 260 215
315 313 313 312 308 307 301 294 289 285 285 297 296 295 297 297 299 297 295 299 294 293 292 291 287 285 286 288 289 287 285 283 280 280 275 262 210 193
318 316 315 315 313 311 309 305 294 287 281 293 292 298 295 297 297 296 297 299 300 295 295 292 288 287 286 286 287 285 287 285 286 274 223 185 194 191
321 320 319 319 317 315 311 306 299 292 286 287 297 296 293 298 298 298 300 298 300 297 293 290 288 286 285 287 290 288 289 286 200 187 177 158 152 152
319 317 317 315 313 312 310 306 304 298 295 285 290 295 296 298 298 299 302 302 301 300 294 290 289 287 287 287 276 262 224 220 187 162 150 147 150 167
317 316 315 314 313 312 310 308 306 302 299 294 290 295 294 298 297 298 302 302 301 302 299 297 291 288 287 281 233 234 235 190 168 161 169 177 184 183
316 316 315 314 313 311 309 309 306 303 300 299 296 297 296 296 295 298 297 298 299 297 295 293 292 297 280 202 216 195 176 166 165 168 169 182 230 255
318 318 318 317 316 312 310 307 304 301 299 298 298 296 299 298 298 296 296 295 289 290 293 299 324 132 166 171 155 150 149 152 158 159 228 265 247 255
316 317 316 317 316 313 310 307 304 300 295 297 294 293 294 295 296 293 293 289 278 284 242 124 128 121 122 120 132 141 147 138 155 343 294 275 313 311
315 316 317 317 316 314 313 309 307 307 307 306 297 295 295 295 295 288 282 270 245 170 157 124 140 131 135 136 130 115 139 156 167 103 60 0 326 314
316 317 317 316 317 317 313 309 308 312 316 310 303 298 297 296 289 277 258 218 150 138 155 138 139 131 124 121 124 147 157 110 108 76 346 337 332 330
318 316 316 317 315 316 312 313 314 312 315 317 314 309 300 295 95 105 109 145 139 104 125 145 145 132 116 139 152 165 130 114 12 347 345 337 330 328
319 319 318 316 318 320 317 306 305 312 316 312 322 57 90 98 97 99 114 108 131 124 112 150 165 153 154 167 177 188 218 305 334 332 334 332 327 326
318 318 316 319 320 321 321 327 323 333 266 185 103 101 103 95 91 88 81 75 85 106 100 102 157 160 142 162 180 212 232 286 318 331 333 329 328 332
316 317 314 315 316 324 324 334 344 229 224 141 119 106 96 86 77 74 72 71 80 93 92 85 100 115 134 143 145 150 161 309 324 334 329 331 331 330
313 314 315 305 310 307 310 313 285 210 172 138 110 95 90 85 74 67 65 74 73 90 91 89 89 96 103 112 114 124 319 334 328 332 331 331 330 328
304 300 299 294 293 292 282 240 205 188 189 116 51 86 107 91 65 65 61 56 84 87 88 84 78 75 89 93 75 10 340 338 333 334 333 334 334 336
293 283 282 272 271 266 240 225 225 240 263 298 276 228 229 276 310 336 37 31 41 99 118 123 115 106 103 67 57 17 342 343 347 347 345 345 344 343
279 270 266 260 261 264 243 241 247 259 272 267 262 258 260 272 292 309 320 343 5 220 188 176 187 237 174 108 7 350 349 352 350 347 344 342 338 337
270 262 259 257 259 257 248 245 253 265 266 264 261 265 272 283 293 296 300 296 269 230 217 198 203 224 36 21 356 343 340 341 341 340 335 331 331 336
272 265 260 258 258 253 246 249 256 257 255 254 260 270 279 283 287 286 283 270 257 242 221 222 248 303 334 328 322 330 332 333 334 332 332 331 334 336
274 270 263 262 252 249 248 244 246 248 252 259 267 273 274 275 280 276 272 269 262 244 236 245 270 295 303 306 315 321 323 324 325 326 326 326 324 319
281 270 264 262 247 247 238 238 240 248 258 266 272 275 272 273 273 270 263 259 257 258 259 263 274 284 292 298 306 311 312 314 317 320 318 316 312 310